Oxford, CT

6:53 PM EDT on October 18, 2017 (GMT -0400)
Waterbury-Oxford

Weather History for KOXC - September, 2012

Change the Weather History Date:

Monday, September 17, 2012

  Actual Average Record
Temperature  
Mean Temperature 60 °F -  
Max Temperature 75 °F 68 °F 84 °F (2015)
Min Temperature 44 °F 51 °F 37 °F (2000)
Degree Days  
Heating Degree Days 6    
Growing Degree Days 10 (Base 50)    
Moisture  
Dew Point 47 °F    
Average Humidity 79    
Maximum Humidity 93    
Minimum Humidity 47    
Precipitation  
Precipitation 0.00 in - - ()
Sea Level Pressure  
Sea Level Pressure 30.10 in    
Wind  
Wind Speed 2 mph (SSW)    
Max Wind Speed 7 mph    
Max Gust Speed -    
Visibility 10 miles    
Events      
Averages and records for this station are not official NWS values.
T = Trace of Precipitation, MM = Missing Value Source: NWS Daily Summary

Daily Weather History Graph

Daily Weather History Graph

Search for Another Location

Airport or City:

Trip Planner

Search our weather history database for the weather conditions in past years. The results will help you decide how hot, cold, wet, or windy it might be!

Date:

Astronomy

Sep. 17, 2012 Rise Set
Actual Time 6:35 AM EDT 6:57 PM EDT
Civil Twilight 6:07 AM EDT 7:25 PM EDT
Nautical Twilight 5:34 AM EDT 7:57 PM EDT
Astronomical Twilight 5:01 AM EDT 8:31 PM EDT
Moon 8:23 AM EDT (9/17) 7:35 PM EDT (9/17)
Length of Visible Light 13h 17m
Length of Day
12h 22m
Waxing Crescent, 3% of the Moon is Illuminated
Sep 17
Waxing Crescent
Sep 22
First Quarter
Sep 29
Full
Oct 8
Last Quarter
Oct 15
New

Hourly Weather History & Observations

Time (EDT) Temp. Windchill Dew Point Humidity Pressure Visibility Wind Dir Wind Speed Gust Speed Precip Events Conditions
12:15 AM 48.2 °F - 42.8 °F 82% 30.10 in 10.0 mi North 3.5 mph - N/A   Clear
12:35 AM 48.2 °F - 44.6 °F 87% 30.10 in 10.0 mi Calm Calm - N/A   Clear
12:55 AM 48.2 °F - 44.6 °F 87% 30.10 in 10.0 mi Calm Calm - N/A   Clear
1:15 AM 48.2 °F - 44.6 °F 87% 30.10 in 10.0 mi NNW 3.5 mph - N/A   Clear
1:35 AM 48.2 °F - 44.6 °F 87% 30.10 in 10.0 mi Calm Calm - N/A   Clear
1:55 AM 46.4 °F - 42.8 °F 87% 30.10 in 10.0 mi Calm Calm - N/A   Clear
2:15 AM 46.4 °F - 42.8 °F 87% 30.10 in 10.0 mi Calm Calm - N/A   Clear
2:35 AM 46.4 °F - 42.8 °F 87% 30.10 in 10.0 mi Calm Calm - N/A   Clear
3:15 AM 44.6 °F 42.2 °F 41.0 °F 87% 30.09 in 10.0 mi North 4.6 mph - N/A   Clear
3:35 AM 46.4 °F 44.3 °F 42.8 °F 87% 30.09 in 10.0 mi North 4.6 mph - N/A   Clear
3:55 AM 46.4 °F - 42.8 °F 87% 30.09 in 10.0 mi Calm Calm - N/A   Clear
4:15 AM 46.4 °F - 44.6 °F 93% 30.10 in 10.0 mi Calm Calm - N/A   Clear
4:35 AM 46.4 °F - 42.8 °F 87% 30.11 in 10.0 mi Calm Calm - N/A   Clear
5:15 AM 44.6 °F - 41.0 °F 87% 30.11 in 10.0 mi Calm Calm - N/A   Clear
5:45 AM 46.4 °F - 42.8 °F 87% 30.12 in 10.0 mi Calm Calm - N/A   Mostly Cloudy
6:45 AM 46.4 °F - 42.8 °F 87% 30.13 in 10.0 mi Calm Calm - N/A   Scattered Clouds
8:45 AM 57.2 °F - 48.2 °F 72% 30.14 in 10.0 mi Calm Calm - N/A   Clear
9:45 AM - - - N/A% 30.14 in 10.0 mi Calm Calm - N/A   Scattered Clouds
10:45 AM - - - N/A% 30.14 in 10.0 mi Calm Calm - N/A   Clear
11:45 AM - - - N/A% 30.13 in 10.0 mi West 3.5 mph - N/A   Clear
12:45 PM - - - N/A% 30.12 in 10.0 mi Calm Calm - N/A   Clear
1:45 PM - - - N/A% 30.10 in 10.0 mi WSW 5.8 mph - N/A   Partly Cloudy
2:45 PM 73.4 °F - 53.6 °F 50% 30.07 in 10.0 mi WSW 5.8 mph - N/A   Scattered Clouds
3:45 PM 75.2 °F - 53.6 °F 47% 30.07 in 10.0 mi South 6.9 mph - N/A   Scattered Clouds
5:45 PM 69.8 °F - 53.6 °F 56% 30.07 in 10.0 mi South 5.8 mph - N/A   Clear
7:45 PM 62.6 °F - 53.6 °F 72% 30.08 in 10.0 mi South 4.6 mph - N/A   Clear
8:50 PM 60.8 °F - 51.8 °F 72% 30.08 in 10.0 mi South 3.5 mph - N/A   Clear
9:15 PM 60.8 °F - 51.8 °F 72% 30.09 in 10.0 mi South 3.5 mph - N/A   Clear
9:35 PM 60.8 °F - 51.8 °F 72% 30.09 in 10.0 mi SSE 3.5 mph - N/A   Clear
9:55 PM 60.8 °F - 51.8 °F 72% 30.08 in 10.0 mi SSE 3.5 mph - N/A   Clear
10:55 PM 59.0 °F - 51.8 °F 77% 30.09 in 10.0 mi Calm Calm - N/A   Clear
11:15 PM 59.0 °F - 51.8 °F 77% 30.09 in 10.0 mi Calm Calm - N/A   Clear
11:35 PM 57.2 °F - 51.8 °F 82% 30.08 in 10.0 mi SSE 3.5 mph - N/A   Clear
11:55 PM 57.2 °F - 51.8 °F 82% 30.08 in 10.0 mi South 3.5 mph - N/A   Clear